FW3021 Weather Reports


Display with metric or nautical units.
time (UTC)temp
F
wind
direction
speed
MPH
gust
MPH
rain 1hr
in
rain 24hr
in
rain mn
in
humidity
%
barometer
mb
20260901104517 56 0.0 0.0 0.00 0.02 0.00 88 1010.3
20260901103516 56 0 1.0 2.0 0.00 0.02 0.00 88 1010.4
20260901102516 55 0 1.0 2.0 0.00 0.02 0.00 88 1010.4
20260901101516 55 0 1.0 2.0 0.00 0.02 0.00 88 1010.3
20260901100517 55 0.0 0.0 0.00 0.02 0.00 88 1010.4
20260901095517 55 0.0 1.0 0.00 0.02 0.00 88 1010.3
20260901094517 55 0 1.0 2.0 0.00 0.02 0.00 88 1010.4
20260901093517 56 0.0 0.0 0.00 0.02 0.00 88 1010.0
20260901092517 55 0.0 2.0 0.00 0.02 0.00 88 1010.0
20260901091517 55 0.0 0.0 0.00 0.02 0.00 88 1010.1
20260901090536 55 0.0 0.0 0.00 0.02 0.00 88 1010.2
20260901085516 55 0.0 0.0 0.00 0.04 0.00 88 1010.3
20260901084517 55 0.0 2.0 0.00 0.06 0.00 88 1010.3
20260901083516 54 0.0 1.0 0.00 0.06 0.00 88 1010.4
20260901082516 54 0.0 3.0 0.00 0.07 0.00 88 1010.4
20260901081537 54 0.0 2.0 0.00 0.08 0.00 88 1010.4
20260901080516 54 0 1.0 2.0 0.00 0.09 0.00 87 1010.5
20260901075516 54 0 1.0 2.0 0.00 0.10 0.00 88 1010.5
20260901074516 54 0 1.0 3.0 0.00 0.10 0.00 88 1010.5
20260901073516 55 0 2.0 2.0 0.00 0.10 0.00 87 1010.7
20260901072516 55 0 1.0 2.0 0.00 0.10 0.00 88 1010.7
20260901071516 55 113 1.0 2.0 0.00 0.10 0.00 87 1010.8
20260901070516 56 0.0 1.0 0.00 0.11 0.00 87 1010.9
20260901065536 56 0.0 0.0 0.00 0.11 0.00 87 1010.9
20260901064516 56 0.0 0.0 0.00 0.11 0.00 88 1010.9
20260901063516 56 0.0 0.0 0.00 0.12 0.00 87 1010.9
20260901062516 57 113 1.0 3.0 0.00 0.12 0.00 88 1011.0
20260901061516 57 0.0 2.0 0.00 0.12 0.00 87 1010.9
20260901060516 57 0.0 1.0 0.00 0.13 0.00 87 1010.9
20260901055516 57 0.0 1.0 0.00 0.22 0.00 87 1010.9
20260901054516 57 0.0 1.0 0.00 0.26 0.00 87 1010.9
20260901053516 58 0.0 0.0 0.00 0.26 0.00 87 1010.9
20260901052516 58 0.0 0.0 0.00 0.26 0.00 87 1010.8
20260901051516 58 0.0 2.0 0.00 0.26 0.00 87 1010.9
20260901050536 58 0.0 0.0 0.00 0.26 0.00 87 1010.9
20260901045516 58 0.0 0.0 0.00 0.27 0.26 87 1011.0
20260901044536 58 0.0 0.0 0.00 0.27 0.26 87 1010.8
20260901043536 58 0.0 0.0 0.00 0.27 0.26 87 1010.7
20260901042516 59 0.0 0.0 0.00 0.27 0.26 87 1010.8
20260901041516 60 0.0 0.0 0.00 0.27 0.26 87 1010.9
20260901040516 60 0.0 1.0 0.00 0.27 0.26 87 1010.8
20260901035516 61 0.0 2.0 0.00 0.27 0.26 87 1010.8
20260901034516 61 0.0 2.0 0.00 0.27 0.26 87 1010.8
20260901033516 61 0.0 2.0 0.00 0.27 0.26 87 1010.8
20260901032516 61 0.0 0.0 0.00 0.27 0.26 87 1010.8
20260901031516 62 0.0 2.0 0.00 0.27 0.26 87 1010.9
20260901030516 62 0.0 0.0 0.00 0.27 0.26 87 1010.9
20260901025516 62 0.0 0.0 0.00 0.27 0.26 87 1010.8
20260901024516 62 0.0 0.0 0.00 0.27 0.26 87 1010.7
20260901023516 63 0.0 1.0 0.00 0.27 0.26 87 1010.7
20260901022516 63 0.0 0.0 0.00 0.27 0.26 87 1010.8
20260901021516 63 0.0 0.0 0.00 0.27 0.26 87 1010.9
20260901020516 63 0.0 0.0 0.00 0.27 0.26 87 1010.8
20260901015516 63 0.0 1.0 0.00 0.27 0.26 87 1010.8
20260901014516 63 0.0 1.0 0.00 0.27 0.26 87 1010.6
20260901013516 64 0.0 0.0 0.00 0.27 0.26 87 1010.6
20260901012516 64 0.0 0.0 0.00 0.27 0.26 87 1010.5
20260901011516 64 0.0 0.0 0.00 0.27 0.26 87 1010.5
20260901010516 64 0.0 0.0 0.00 0.27 0.26 87 1010.3
20260901005536 64 0.0 0.0 0.00 0.27 0.26 87 1010.2
20260901004516 64 0.0 0.0 0.00 0.27 0.26 87 1010.1
20260901003536 64 0.0 0.0 0.00 0.27 0.26 87 1010.0
20260901002516 64 0.0 1.0 0.00 0.27 0.26 87 1010.0
20260901001516 64 0.0 3.0 0.00 0.27 0.26 86 1010.0
20260901000536 64 0.0 2.0 0.00 0.27 0.26 87 1010.0
20260831235516 65 0.0 0.0 0.00 0.27 0.26 87 1009.9
20260831234516 65 0.0 0.0 0.00 0.27 0.26 87 1010.1
20260831233515 65 0.0 1.0 0.00 0.27 0.26 86 1010.1
20260831232516 65 0.0 1.0 0.00 0.27 0.26 86 1009.9
20260831231535 65 0.0 0.0 0.00 0.27 0.26 86 1009.9
20260831230536 65 0.0 2.0 0.00 0.27 0.26 86 1010.0
20260831225515 65 0 1.0 3.0 0.00 0.27 0.26 86 1009.9
20260831224516 65 0.0 3.0 0.00 0.27 0.26 86 1009.8
20260831223516 65 0 1.0 3.0 0.00 0.27 0.26 86 1009.7
20260831222515 65 0 1.0 4.0 0.00 0.27 0.26 86 1009.7
20260831221515 65 0.0 3.0 0.00 0.27 0.26 86 1009.9
20260831220556 65 0 1.0 3.0 0.00 0.27 0.26 86 1010.0
20260831215515 65 0 1.0 3.0 0.00 0.27 0.26 86 1010.0
20260831214516 66 0 1.0 4.0 0.00 0.27 0.26 86 1010.0
20260831213515 66 0 1.0 3.0 0.00 0.27 0.26 86 1010.0
20260831212535 66 0.0 0.0 0.00 0.27 0.26 86 1010.0
20260831211517 66 0.0 0.0 0.00 0.27 0.26 87 1010.0
20260831210517 65 0.0 0.0 0.00 0.27 0.26 86 1009.9
20260831205517 65 0.0 0.0 0.00 0.27 0.26 86 1009.9
20260831204517 65 0.0 0.0 0.00 0.27 0.26 85 1009.9
20260831203517 66 0.0 0.0 0.00 0.27 0.26 85 1009.9
20260831202517 67 0.0 0.0 0.00 0.27 0.26 85 1009.8
20260831201537 67 0.0 3.0 0.00 0.27 0.26 86 1009.8
20260831200517 67 0.0 2.0 0.00 0.27 0.26 86 1009.7
20260831195517 67 0 2.0 5.0 0.00 0.27 0.26 86 1009.7
20260831194517 66 0 1.0 3.0 0.00 0.27 0.26 86 1009.8
20260831193518 66 0 2.0 4.0 0.00 0.27 0.26 86 1009.8
20260831192517 66 0 2.0 4.0 0.00 0.27 0.26 87 1009.7
20260831191517 66 0 2.0 4.0 0.00 0.27 0.26 87 1009.5
20260831190517 66 0 2.0 5.0 0.00 0.27 0.26 87 1009.6
20260831185517 66 0 2.0 8.0 0.00 0.27 0.26 87 1009.5
20260831184517 66 0 3.0 8.0 0.00 0.27 0.26 87 1009.5
20260831183517 66 0 2.0 6.0 0.00 0.27 0.26 87 1009.6
20260831182517 66 0 2.0 6.0 0.00 0.27 0.26 87 1009.6
20260831181517 65 0 2.0 5.0 0.00 0.27 0.26 87 1009.6
20260831180517 66 0 3.0 8.0 0.00 0.27 0.26 87 1009.5
20260831175517 66 0 3.0 8.0 0.00 0.27 0.26 88 1009.6
20260831174517 66 0 4.0 9.0 0.00 0.27 0.26 88 1009.5
20260831173517 66 0 3.0 8.0 0.00 0.27 0.26 88 1009.5
20260831172517 66 0 2.0 9.0 0.00 0.27 0.26 88 1009.4
20260831171517 66 0 2.0 6.0 0.00 0.27 0.26 88 1009.5
20260831170517 65 0 2.0 6.0 0.00 0.27 0.26 88 1009.7
20260831165517 66 0 2.0 6.0 0.00 0.27 0.26 88 1009.8
20260831164517 66 0 2.0 5.0 0.00 0.27 0.26 88 1009.6
20260831163537 66 0 1.0 3.0 0.00 0.27 0.26 88 1009.4
20260831162517 66 0 2.0 4.0 0.00 0.27 0.26 88 1009.4
20260831161537 66 0 1.0 5.0 0.00 0.27 0.26 88 1009.4
20260831160517 65 0 2.0 6.0 0.00 0.27 0.26 88 1009.5
20260831155517 65 0 2.0 5.0 0.00 0.27 0.26 88 1009.5
20260831154537 65 0 1.0 4.0 0.00 0.27 0.26 88 1009.6
20260831153517 65 0 2.0 6.0 0.00 0.27 0.26 88 1009.5
20260831152517 64 0 2.0 8.0 0.00 0.27 0.26 88 1009.3
20260831151517 64 0 3.0 6.0 0.00 0.27 0.26 87 1009.5
20260831150517 65 0 3.0 8.0 0.00 0.27 0.26 88 1009.3
20260831145537 65 0 3.0 5.0 0.00 0.27 0.26 88 1009.2
20260831144517 65 0 2.0 6.0 0.00 0.27 0.26 88 1009.0
20260831143516 65 0 1.0 5.0 0.00 0.27 0.26 88 1009.0
20260831142516 65 0 1.0 6.0 0.00 0.27 0.26 88 1009.0
20260831141516 64 0 2.0 6.0 0.00 0.27 0.26 88 1009.0
20260831140517 64 0 3.0 6.0 0.00 0.27 0.26 88 1008.9
20260831135516 65 0 3.0 9.0 0.00 0.27 0.26 88 1009.1
20260831134517 65 0 4.0 10.0 0.00 0.27 0.26 88 1008.7
20260831133517 65 0 3.0 10.0 0.00 0.27 0.26 88 1008.8
20260831132516 65 0 3.0 12.0 0.00 0.27 0.26 88 1008.7
20260831131516 65 0 4.0 10.0 0.00 0.27 0.26 88 1008.7
20260831130516 65 0 3.0 8.0 0.00 0.27 0.26 87 1008.5
20260831125516 65 0 2.0 8.0 0.00 0.27 0.26 87 1008.9
20260831124516 65 0 3.0 9.0 0.01 0.27 0.26 88 1008.6
20260831123516 65 0 2.0 9.0 0.01 0.27 0.26 88 1008.6
20260831122516 65 0 2.0 6.0 0.02 0.27 0.26 88 1008.4
20260831121516 64 0 2.0 5.0 0.02 0.27 0.26 88 1008.3
20260831120516 64 0 2.0 5.0 0.02 0.27 0.26 87 1008.4
20260831115516 64 0 1.0 5.0 0.02 0.27 0.26 88 1008.1
20260831114516 64 68 1.0 3.0 0.01 0.26 0.25 88 1008.4
20260831113516 64 0 1.0 2.0 0.01 0.26 0.25 88 1008.7
20260831112516 64 0 1.0 4.0 0.00 0.25 0.24 88 1009.3
20260831111516 64 0 1.0 3.0 0.00 0.25 0.24 88 1009.3
20260831110556 64 0 2.0 4.0 0.00 0.25 0.24 88 1009.4
20260831105516 64 68 1.0 4.0 0.00 0.25 0.24 88 1009.1